[[{"header":{"parameterUnit":"m.s-1","parameterCategory":1,"la1":30.2991,"la2":30.254,"lo1":-89.0895,"lo2":-89.0444,"dy":0.0017,"dx":0.0017,"nx":28,"ny":28,"refTime":"2024-04-22T09:00:00:Z","depth":0,"parameterNumber":2,"parameterNumberName":"U-component_of_WINDS"},"data":[0,0,0,0,0,0,0,0,0,0,0,0,0,0,0,0,0,0,0,0,0,0,0,0,0,0,0,0,0,0,0,0,0,0,0,0,0,0,0,0,0,0,0,0,0,0,0,0,0,0,0,0,0,0,0,0,0,0,-0.3103,-0.3102,0,-0.3063,-0.3063,-0.3063,-0.304,-0.304,-0.304,-0.3039,-0.2998,-0.2997,-0.2996,0,0,0,0,0,0,0,0,0,0,0,0,0,-0.3155,-0.3155,-0.3103,-0.3102,-0.3102,-0.3064,-0.3063,-0.3062,-0.304,-0.304,-0.3039,-0.3039,-0.2999,-0.2997,-0.2996,0,0,0,0,0,0,0,0,0,0,0,0,0,-0.3126,-0.3154,-0.3103,-0.3086,-0.3084,-0.3064,-0.3063,-0.3062,-0.304,-0.304,-0.3039,-0.3039,-0.2999,-0.2998,-0.2996,-0.2989,0,0,-0.2991,-0.2991,0,0,0,0,0,0,0,0,-0.3128,-0.3124,-0.3089,-0.3087,-0.3085,-0.3056,-0.3067,-0.3038,-0.304,-0.3056,-0.3039,-0.3039,-0.3018,-0.3015,-0.3007,-0.2987,-0.2986,-0.2991,-0.299,-0.299,-0.2989,0,0,0,0,0,0,0,-0.313,-0.3126,-0.3087,-0.3088,-0.3086,-0.3079,-0.3075,-0.3061,-0.3038,-0.3055,-0.3053,-0.3049,-0.3016,-0.3009,-0.3006,-0.2985,-0.2991,-0.299,-0.2989,-0.2988,-0.2956,-0.2956,0,0,0,0,0,0,-0.3135,-0.3128,-0.3088,-0.3086,-0.3106,-0.3079,-0.3074,-0.3066,-0.3038,-0.3034,-0.3049,-0.3048,-0.3012,-0.3008,-0.3005,-0.2995,-0.299,-0.2988,-0.2987,-0.2956,-0.2956,-0.2956,0,0,0,0,0,0,-0.3136,-0.3132,-0.309,-0.3106,-0.31,-0.3078,-0.3069,-0.3065,-0.3057,-0.3034,-0.303,-0.3046,-0.3011,-0.3007,-0.2993,-0.2993,-0.2988,-0.2986,-0.2956,-0.2956,-0.2956,-0.2975,0,0,0,0,0,0,-0.3138,-0.3132,-0.313,-0.3106,-0.31,-0.308,-0.3069,-0.3064,-0.3055,-0.3053,-0.303,-0.3026,-0.3011,-0.2996,-0.2992,-0.2991,-0.2985,-0.2956,-0.2956,-0.2956,-0.2974,-0.2975,-0.2976,0,0,0,0,0,-0.314,-0.3137,-0.313,-0.3125,-0.3097,-0.308,-0.3076,-0.3059,-0.3055,-0.3052,-0.3037,-0.3026,-0.2993,-0.2994,-0.299,-0.2988,-0.2956,-0.2956,-0.2956,-0.2973,-0.2975,-0.2976,0,0,0,0,0,0,-0.3161,-0.3133,-0.3126,-0.3115,-0.31,-0.3076,-0.3072,-0.3062,-0.3047,-0.3046,-0.3026,-0.3021,-0.3009,-0.2997,-0.2999,-0.298,-0.2973,-0.2973,-0.2988,-0.2989,-0.2991,-0.2994,-0.2984,0,0,0,0,0,-0.3164,-0.3153,-0.313,-0.3122,-0.3115,-0.3095,-0.3087,-0.3075,-0.3059,-0.3052,-0.3036,-0.302,-0.3006,-0.2997,-0.2983,-0.2972,-0.2966,-0.2968,-0.297,-0.2971,-0.297,-0.2963,-0.2964,-0.2957,-0.2957,-0.2957,0,0,-0.3171,-0.3155,-0.3149,-0.3126,-0.3113,-0.3102,-0.309,-0.3078,-0.3069,-0.305,-0.3036,-0.3024,-0.3004,-0.2992,-0.2985,-0.2982,-0.2971,-0.2971,-0.2972,-0.2971,-0.2963,-0.2964,-0.2964,-0.2957,-0.2957,-0.2957,0,0,-0.3178,-0.3165,-0.3157,-0.3144,-0.3124,-0.311,-0.3109,-0.3086,-0.3077,-0.3062,-0.3048,-0.3036,-0.3013,-0.2999,-0.2989,-0.2989,-0.2979,-0.2985,-0.2992,-0.2985,-0.2985,-0.2986,-0.2985,-0.2985,-0.2985,-0.2985,-0.2985,0,-0.3189,-0.3171,-0.3154,-0.3143,-0.3133,-0.3115,-0.3107,-0.3095,-0.3072,-0.3065,-0.3061,-0.303,-0.3016,-0.2999,-0.2999,-0.2992,-0.2989,-0.2988,-0.2987,-0.2987,-0.2987,-0.2986,-0.2986,-0.2986,-0.2986,-0.2986,-0.2985,0,-0.3186,-0.3174,-0.317,-0.3148,-0.3137,-0.3127,-0.3108,-0.3099,-0.3088,-0.3075,-0.3059,-0.3041,-0.3023,-0.3018,-0.3007,-0.3,-0.2998,-0.2991,-0.2984,-0.2989,-0.2988,-0.2988,-0.2987,-0.2987,-0.2986,-0.2986,0,0,-0.3205,-0.3173,-0.3172,-0.3161,-0.3138,-0.3128,-0.3117,-0.3099,-0.3091,-0.3075,-0.3065,-0.3045,-0.3038,-0.3026,-0.3014,-0.3008,-0.3008,-0.3001,-0.3,-0.3002,-0.2998,-0.3003,-0.3003,-0.3001,-0.3001,-0.3001,-0.2999,0,-0.3208,-0.3189,-0.3172,-0.3158,-0.3146,-0.3129,-0.3119,-0.3103,-0.309,-0.3077,-0.3062,-0.3048,-0.304,-0.3033,-0.3026,-0.301,-0.3007,-0.3009,-0.2991,-0.299,-0.2996,-0.3003,-0.3009,-0.3009,-0.2999,-0.2999,-0.2999,0,-0.321,-0.3194,-0.3179,-0.3156,-0.315,-0.3142,-0.3124,-0.3112,-0.3093,-0.3084,-0.3071,-0.3058,-0.3044,-0.3038,-0.3019,-0.3021,-0.3013,-0.3003,-0.3003,-0.3,-0.2995,-0.3001,-0.3008,-0.3008,-0.2998,-0.2998,-0.2998,0,-0.3225,-0.3201,-0.3188,-0.318,-0.3152,-0.3147,-0.3135,-0.3116,-0.3106,-0.3089,-0.3082,-0.3065,-0.3055,-0.3041,-0.3023,-0.3021,-0.3005,-0.2998,-0.2997,-0.2997,-0.2994,-0.2995,-0.3001,-0.2989,-0.2989,-0.2989,-0.2989,0,-0.323,-0.3222,-0.3195,-0.3187,-0.3176,-0.3157,-0.3147,-0.3133,-0.3116,-0.3105,-0.3088,-0.3078,-0.3055,-0.3042,-0.3027,-0.3013,-0.3009,-0.3,-0.2997,-0.3002,-0.3003,-0.2996,-0.2995,-0.2989,-0.2989,-0.2989,-0.2989,0,-0.3246,-0.3228,-0.3213,-0.3188,-0.3181,-0.3175,-0.3153,-0.3144,-0.313,-0.3116,-0.3111,-0.3088,-0.3071,-0.3052,-0.3029,-0.3019,-0.3006,-0.3001,-0.3013,-0.301,-0.301,-0.301,-0.3011,-0.301,-0.2999,-0.2999,-0.3,0,-0.325,-0.3243,-0.3217,-0.3209,-0.3198,-0.3184,-0.3174,-0.3154,-0.3143,-0.3121,-0.3115,-0.3097,-0.3081,-0.3055,-0.3036,-0.3018,-0.3012,-0.3013,-0.3009,-0.3014,-0.3011,-0.3012,-0.3011,-0.3015,-0.3015,-0.3015,-0.3015,0,-0.326,-0.3251,-0.3237,-0.3219,-0.3207,-0.3192,-0.3177,-0.317,-0.3147,-0.3136,-0.3119,-0.3107,-0.3083,-0.3065,-0.3044,-0.3031,-0.3019,-0.3017,-0.3015,-0.302,-0.3027,-0.3023,-0.3016,-0.3017,-0.3017,-0.3016,-0.3016,-0.3016,-0.327,-0.3263,-0.3243,-0.3228,-0.3214,-0.3199,-0.319,-0.3174,-0.3159,-0.3138,-0.3127,-0.311,-0.309,-0.3061,-0.3048,-0.3034,-0.303,-0.3028,-0.3027,-0.3027,-0.3028,-0.303,-0.303,-0.303,-0.303,-0.303,-0.303,0,-0.3279,-0.3265,-0.3251,-0.323,-0.3217,-0.3207,-0.3188,-0.3178,-0.3164,-0.3146,-0.3131,-0.3111,-0.3093,-0.3072,-0.3053,-0.3045,-0.3039,-0.3041,-0.3041,-0.3038,-0.3033,-0.3036,-0.3046,-0.3046,-0.3046,-0.3046,-0.3046,-0.3046,-0.3282,-0.3269,-0.3257,-0.3236,-0.3222,-0.3206,-0.3196,-0.3182,-0.3168,-0.3146,-0.3131,-0.3118,-0.3099,-0.3077,-0.306,-0.3054,-0.3048,-0.3051,-0.3044,-0.304,-0.3038,-0.3037,-0.304,-0.305,-0.305,-0.305,-0.305,-0.305]},{"header":{"parameterUnit":"m.s-1","parameterCategory":1,"la1":30.2991,"la2":30.254,"lo1":-89.0895,"lo2":-89.0444,"dy":0.0017,"dx":0.0017,"nx":28,"ny":28,"refTime":"2024-04-22T09:00:00:Z","depth":0,"parameterNumber":3,"parameterNumberName":"V-component_of_WINDS"},"data":[0,0,0,0,0,0,0,0,0,0,0,0,0,0,0,0,0,0,0,0,0,0,0,0,0,0,0,0,0,0,0,0,0,0,0,0,0,0,0,0,0,0,0,0,0,0,0,0,0,0,0,0,0,0,0,0,0,0,-3.0156,-3.0157,0,-3.024,-3.0241,-3.0241,-3.0283,-3.0283,-3.0283,-3.0283,-3.0365,-3.0367,-3.037,0,0,0,0,0,0,0,0,0,0,0,0,0,-3.0031,-3.0033,-3.0156,-3.0157,-3.0158,-3.0239,-3.0241,-3.0242,-3.0283,-3.0283,-3.0283,-3.0283,-3.0365,-3.0367,-3.037,0,0,0,0,0,0,0,0,0,0,0,0,0,-3.0097,-3.0033,-3.0156,-3.0189,-3.0192,-3.0239,-3.0241,-3.0242,-3.0283,-3.0283,-3.0283,-3.0283,-3.0364,-3.0367,-3.037,-3.039,0,0,-3.038,-3.0381,0,0,0,0,0,0,0,0,-3.0093,-3.0101,-3.0183,-3.0186,-3.0191,-3.0251,-3.0227,-3.0291,-3.0283,-3.0248,-3.0283,-3.0283,-3.0327,-3.0333,-3.0349,-3.0393,-3.0397,-3.038,-3.0382,-3.0384,-3.0385,0,0,0,0,0,0,0,-3.0088,-3.0098,-3.0189,-3.0184,-3.0189,-3.0199,-3.0208,-3.0239,-3.0286,-3.0252,-3.0255,-3.0264,-3.0329,-3.0346,-3.0351,-3.0398,-3.038,-3.0383,-3.0385,-3.0386,-3.0466,-3.0466,0,0,0,0,0,0,-3.0079,-3.0094,-3.0186,-3.0191,-3.0141,-3.0201,-3.0211,-3.0232,-3.0286,-3.0295,-3.0264,-3.0266,-3.034,-3.0347,-3.0354,-3.0382,-3.0384,-3.0387,-3.0389,-3.0465,-3.0466,-3.0466,0,0,0,0,0,0,-3.0076,-3.0086,-3.0183,-3.0144,-3.0157,-3.0203,-3.0225,-3.0233,-3.025,-3.0296,-3.0304,-3.0272,-3.034,-3.035,-3.0381,-3.0386,-3.0388,-3.0391,-3.0465,-3.0465,-3.0466,-3.0438,0,0,0,0,0,0,-3.0072,-3.0085,-3.0093,-3.0143,-3.0159,-3.0209,-3.0226,-3.0235,-3.0256,-3.0259,-3.0306,-3.0314,-3.0341,-3.0376,-3.0385,-3.039,-3.0394,-3.0465,-3.0465,-3.0466,-3.0438,-3.0437,-3.0436,0,0,0,0,0,-3.0067,-3.0081,-3.0093,-3.0104,-3.017,-3.0209,-3.0218,-3.025,-3.0256,-3.0264,-3.0294,-3.0312,-3.0384,-3.0379,-3.0389,-3.0395,-3.0465,-3.0465,-3.0466,-3.0439,-3.0437,-3.0436,0,0,0,0,0,0,-3.0028,-3.0088,-3.0103,-3.0133,-3.0166,-3.0216,-3.0228,-3.0247,-3.0278,-3.0279,-3.0317,-3.0327,-3.0356,-3.0379,-3.0373,-3.0418,-3.0426,-3.0428,-3.0403,-3.0401,-3.04,-3.0394,-3.0396,0,0,0,0,0,-3.0023,-3.0051,-3.0101,-3.0123,-3.0139,-3.0181,-3.0199,-3.0221,-3.0257,-3.027,-3.0303,-3.0335,-3.0366,-3.0385,-3.0415,-3.0442,-3.0453,-3.0451,-3.045,-3.0449,-3.045,-3.0468,-3.0468,-3.0467,-3.0467,-3.0467,0,0,-3.0013,-3.0049,-3.0064,-3.0116,-3.0145,-3.0173,-3.0192,-3.022,-3.0241,-3.0274,-3.0307,-3.0332,-3.0371,-3.0401,-3.0416,-3.0421,-3.0453,-3.0449,-3.0448,-3.045,-3.0469,-3.0469,-3.0469,-3.0467,-3.0467,-3.0467,0,0,-3.0009,-3.0038,-3.0061,-3.009,-3.0133,-3.0161,-3.0166,-3.0214,-3.0233,-3.0267,-3.0293,-3.0318,-3.0368,-3.0396,-3.0417,-3.0426,-3.0443,-3.0434,-3.0427,-3.0444,-3.0444,-3.0444,-3.0449,-3.045,-3.0435,-3.0435,-3.0435,0,-2.999,-3.0034,-3.007,-3.0098,-3.012,-3.0153,-3.0177,-3.0202,-3.0252,-3.0267,-3.0273,-3.0339,-3.0367,-3.0405,-3.0408,-3.0423,-3.0431,-3.0429,-3.0441,-3.0442,-3.0443,-3.0448,-3.0449,-3.0434,-3.0434,-3.0434,-3.0434,0,-3.001,-3.004,-3.0053,-3.0103,-3.0127,-3.0152,-3.0192,-3.0212,-3.0232,-3.026,-3.0294,-3.033,-3.0369,-3.038,-3.0399,-3.0421,-3.0423,-3.0434,-3.0443,-3.0441,-3.0446,-3.0448,-3.0432,-3.0433,-3.0433,-3.0433,0,0,-2.9982,-3.0054,-3.0058,-3.0082,-3.0133,-3.0157,-3.0184,-3.0224,-3.0241,-3.0274,-3.0299,-3.0342,-3.0354,-3.0377,-3.04,-3.0415,-3.0422,-3.0425,-3.0426,-3.0424,-3.045,-3.0442,-3.0443,-3.0434,-3.0434,-3.0435,-3.0447,0,-2.9986,-3.0037,-3.0072,-3.0109,-3.0138,-3.0171,-3.0195,-3.0229,-3.0256,-3.0284,-3.0313,-3.0343,-3.0355,-3.037,-3.0386,-3.0417,-3.0427,-3.0417,-3.0457,-3.0458,-3.0447,-3.0446,-3.0437,-3.0447,-3.0449,-3.0449,-3.045,0,-2.9997,-3.0032,-3.0074,-3.0124,-3.0138,-3.0158,-3.0199,-3.0225,-3.0265,-3.0283,-3.0311,-3.0335,-3.0365,-3.0371,-3.0413,-3.0405,-3.0424,-3.0442,-3.0443,-3.0448,-3.0454,-3.0452,-3.045,-3.0452,-3.0453,-3.0453,-3.0452,0,-2.9974,-3.0032,-3.0065,-3.0084,-3.0144,-3.0158,-3.0183,-3.0223,-3.0245,-3.028,-3.0295,-3.0332,-3.0353,-3.0381,-3.0415,-3.0416,-3.0454,-3.0463,-3.0471,-3.047,-3.0478,-3.0477,-3.048,-3.0488,-3.0488,-3.0488,-3.0488,0,-2.9976,-3.0,-3.0056,-3.0076,-3.0105,-3.0144,-3.0171,-3.0199,-3.0234,-3.026,-3.029,-3.0314,-3.0357,-3.0386,-3.0412,-3.0444,-3.0452,-3.0468,-3.0475,-3.0466,-3.0465,-3.0479,-3.048,-3.0488,-3.0488,-3.0488,-3.0488,0,-2.9955,-2.9994,-3.0032,-3.0086,-3.01,-3.0119,-3.0165,-3.0186,-3.0215,-3.0248,-3.0257,-3.0303,-3.0339,-3.0375,-3.0423,-3.0441,-3.0472,-3.0481,-3.046,-3.0464,-3.047,-3.047,-3.0484,-3.0488,-3.0492,-3.0492,-3.0492,0,-2.9954,-2.9974,-3.0031,-3.0051,-3.0076,-3.0108,-3.0133,-3.0172,-3.0195,-3.0243,-3.0259,-3.0297,-3.033,-3.0386,-3.0423,-3.046,-3.0471,-3.0473,-3.0476,-3.0467,-3.0472,-3.0471,-3.0474,-3.0472,-3.0471,-3.0471,-3.0471,0,-2.9948,-2.9967,-3.0001,-3.0042,-3.007,-3.0104,-3.0139,-3.0154,-3.02,-3.0225,-3.0263,-3.0289,-3.034,-3.0378,-3.042,-3.0445,-3.0466,-3.047,-3.0474,-3.0466,-3.0453,-3.0461,-3.0457,-3.0469,-3.047,-3.047,-3.047,-3.047,-2.9938,-2.9958,-3.0002,-3.0039,-3.007,-3.0103,-3.0126,-3.0159,-3.0192,-3.0238,-3.0258,-3.0297,-3.0338,-3.0397,-3.0422,-3.0453,-3.0458,-3.0464,-3.0465,-3.0466,-3.0465,-3.0448,-3.046,-3.046,-3.046,-3.046,-3.046,0,-2.9934,-2.9965,-2.9999,-3.0049,-3.0078,-3.0097,-3.0137,-3.0161,-3.0195,-3.0232,-3.0265,-3.0309,-3.0347,-3.0388,-3.0428,-3.0445,-3.0456,-3.0454,-3.0454,-3.0459,-3.0457,-3.045,-3.0445,-3.0445,-3.0445,-3.0445,-3.0445,-3.0445,-2.9936,-2.9972,-2.9997,-3.0049,-3.0079,-3.0118,-3.014,-3.017,-3.02,-3.025,-3.0282,-3.0309,-3.0347,-3.0391,-3.0427,-3.0438,-3.0452,-3.0448,-3.0461,-3.0458,-3.0459,-3.046,-3.0454,-3.045,-3.045,-3.0462,-3.0462,-3.0462]}]]